Time,TemperatureF,DewpointF,PressureIn,WindDirection,WindDirectionDegrees,WindSpeedMPH,WindSpeedGustMPH,Humidity,HourlyPrecipIn,Conditions,Clouds,dailyrainin,SoftwareType,DateUTC
2013-08-07 00:01:00,71.0,67.0,-100.00,SSE,168,6.0,9.0,89,0.00,,,0.10,,2013-08-07 04:01:00,
2013-08-07 00:11:00,71.0,67.0,-100.00,SSE,168,6.0,9.0,89,0.00,,,0.10,,2013-08-07 04:11:00,
2013-08-07 00:22:00,71.0,67.0,-100.00,SSE,168,6.0,9.0,89,0.00,,,0.10,,2013-08-07 04:22:00,
2013-08-07 00:33:00,71.0,67.0,-100.00,South,174,6.0,8.0,89,0.00,,,0.10,,2013-08-07 04:33:00,
2013-08-07 00:43:00,71.0,67.0,-100.00,SSW,192,7.0,9.0,89,0.00,,,0.10,,2013-08-07 04:43:00,
2013-08-07 00:52:00,71.0,67.0,-100.00,SSW,192,7.0,9.0,89,0.00,,,0.10,,2013-08-07 04:52:00,
2013-08-07 01:02:00,70.0,67.0,-100.00,South,184,6.0,8.0,90,0.00,,,0.10,,2013-08-07 05:02:00,
2013-08-07 01:11:00,70.0,67.0,-100.00,South,184,6.0,8.0,90,0.00,,,0.10,,2013-08-07 05:11:00,
2013-08-07 01:22:00,70.0,67.0,-100.00,South,184,6.0,8.0,90,0.00,,,0.10,,2013-08-07 05:22:00,
2013-08-07 01:32:00,70.0,67.0,-100.00,South,182,7.0,8.0,91,0.00,,,0.10,,2013-08-07 05:32:00,
2013-08-07 01:43:00,70.0,67.0,-100.00,SSW,192,4.0,5.0,91,0.00,,,0.10,,2013-08-07 05:43:00,
2013-08-07 01:52:00,70.0,67.0,-100.00,SSW,192,4.0,5.0,91,0.00,,,0.10,,2013-08-07 05:52:00,
2013-08-07 02:02:00,70.0,67.0,-100.00,SSW,192,4.0,5.0,91,0.00,,,0.10,,2013-08-07 06:02:00,
2013-08-07 02:12:00,69.0,67.0,-100.00,South,179,4.0,6.0,91,0.00,,,0.10,,2013-08-07 06:12:00,
2013-08-07 02:22:00,69.0,67.0,-100.00,South,179,4.0,6.0,91,0.00,,,0.10,,2013-08-07 06:22:00,
2013-08-07 02:32:00,69.0,66.0,-100.00,South,174,5.0,6.0,92,0.00,,,0.10,,2013-08-07 06:32:00,
2013-08-07 02:43:00,69.0,67.0,-100.00,South,181,5.0,6.0,91,0.00,,,0.10,,2013-08-07 06:43:00,
2013-08-07 02:52:00,69.0,67.0,-100.00,South,181,5.0,6.0,91,0.00,,,0.10,,2013-08-07 06:52:00,
2013-08-07 03:01:00,69.0,66.0,-100.00,South,174,5.0,6.0,92,0.00,,,0.10,,2013-08-07 07:01:00,
2013-08-07 03:12:00,69.0,66.0,-100.00,South,174,5.0,6.0,92,0.00,,,0.10,,2013-08-07 07:12:00,
2013-08-07 03:22:00,69.0,66.0,-100.00,South,174,5.0,6.0,92,0.00,,,0.10,,2013-08-07 07:22:00,
2013-08-07 03:44:00,69.0,66.0,-100.00,SW,233,2.0,4.0,92,0.00,,,0.10,,2013-08-07 07:44:00,
2013-08-07 03:53:00,69.0,66.0,-100.00,SW,233,2.0,4.0,92,0.00,,,0.10,,2013-08-07 07:53:00,
2013-08-07 04:11:00,69.0,66.0,-100.00,SSW,198,6.0,7.0,91,0.00,,,0.10,,2013-08-07 08:11:00,
2013-08-07 04:22:00,69.0,66.0,-100.00,SSW,198,6.0,7.0,91,0.00,,,0.10,,2013-08-07 08:22:00,
2013-08-07 04:53:00,69.0,67.0,-100.00,South,182,5.0,6.0,90,0.00,,,0.10,,2013-08-07 08:53:00,
2013-08-07 05:02:00,70.0,66.0,-100.00,SSW,198,4.0,6.0,89,0.00,,,0.10,,2013-08-07 09:02:00,
2013-08-07 05:10:00,69.0,66.0,-100.00,South,178,5.0,6.0,90,0.00,,,0.10,,2013-08-07 09:10:00,
2013-08-07 05:12:00,70.0,66.0,-100.00,SSW,198,4.0,6.0,89,0.00,,,0.10,,2013-08-07 09:12:00,
2013-08-07 05:32:00,69.0,66.0,-100.00,SSW,200,4.0,6.0,90,0.00,,,0.10,,2013-08-07 09:32:00,
2013-08-07 05:54:00,69.0,66.0,-100.00,South,178,5.0,6.0,90,0.00,,,0.10,,2013-08-07 09:54:00,
2013-08-07 06:01:00,69.0,66.0,-100.00,South,178,5.0,6.0,90,0.00,,,0.10,,2013-08-07 10:01:00,
2013-08-07 06:32:00,69.0,66.0,-100.00,SSW,206,1.0,2.0,90,0.00,,,0.10,,2013-08-07 10:32:00,
2013-08-07 06:52:00,69.0,66.0,-100.00,South,186,4.0,5.0,89,0.00,,,0.10,,2013-08-07 10:52:00,
2013-08-07 07:02:00,69.0,66.0,-100.00,SSW,192,3.0,6.0,89,0.00,,,0.10,,2013-08-07 11:02:00,
2013-08-07 07:11:00,69.0,66.0,-100.00,SSW,192,3.0,6.0,89,0.00,,,0.10,,2013-08-07 11:11:00,
2013-08-07 07:22:00,69.0,66.0,-100.00,SSW,192,3.0,6.0,89,0.00,,,0.10,,2013-08-07 11:22:00,
2013-08-07 07:32:00,69.0,66.0,-100.00,SSW,195,3.0,5.0,89,0.00,,,0.10,,2013-08-07 11:32:00,
2013-08-07 07:43:00,69.0,66.0,-100.00,SW,217,3.0,5.0,89,0.00,,,0.10,,2013-08-07 11:43:00,
2013-08-07 08:02:00,70.0,66.0,-100.00,SSW,203,4.0,6.0,88,0.00,,,0.10,,2013-08-07 12:02:00,
2013-08-07 08:11:00,70.0,66.0,-100.00,SSW,203,4.0,6.0,88,0.00,,,0.10,,2013-08-07 12:11:00,
2013-08-07 08:22:00,70.0,66.0,-100.00,SSW,203,4.0,6.0,88,0.00,,,0.10,,2013-08-07 12:22:00,
2013-08-07 08:33:00,70.0,66.0,-100.00,South,184,5.0,6.0,87,0.00,,,0.10,,2013-08-07 12:33:00,
2013-08-07 08:43:00,70.0,66.0,-100.00,South,184,5.0,6.0,87,0.00,,,0.10,,2013-08-07 12:43:00,
2013-08-07 09:02:00,70.0,66.0,-100.00,South,175,5.0,6.0,87,0.00,,,0.10,,2013-08-07 13:02:00,
2013-08-07 09:12:00,70.0,66.0,-100.00,South,175,5.0,6.0,87,0.00,,,0.10,,2013-08-07 13:12:00,
2013-08-07 09:22:00,70.0,66.0,-100.00,South,175,5.0,6.0,87,0.00,,,0.10,,2013-08-07 13:22:00,
2013-08-07 09:32:00,70.0,66.0,-100.00,South,178,5.0,6.0,87,0.00,,,0.10,,2013-08-07 13:32:00,
2013-08-07 09:44:00,70.0,66.0,-100.00,SSW,192,5.0,8.0,87,0.00,,,0.10,,2013-08-07 13:44:00,
2013-08-07 09:53:00,70.0,66.0,-100.00,SSW,192,5.0,8.0,87,0.00,,,0.10,,2013-08-07 13:53:00,
2013-08-07 10:02:00,70.0,67.0,-100.00,South,182,6.0,8.0,89,0.00,,,0.10,,2013-08-07 14:02:00,
2013-08-07 10:12:00,70.0,67.0,-100.00,South,182,6.0,8.0,89,0.00,,,0.10,,2013-08-07 14:12:00,
2013-08-07 10:22:00,70.0,67.0,-100.00,South,182,6.0,8.0,89,0.00,,,0.10,,2013-08-07 14:22:00,
2013-08-07 10:33:00,71.0,67.0,-100.00,South,178,5.0,7.0,88,0.00,,,0.10,,2013-08-07 14:33:00,
2013-08-07 10:43:00,72.0,67.0,-100.00,South,174,6.0,8.0,85,0.00,,,0.10,,2013-08-07 14:43:00,
2013-08-07 11:02:00,72.0,67.0,-100.00,South,176,6.0,9.0,87,0.00,,,0.10,,2013-08-07 15:02:00,
2013-08-07 11:13:00,72.0,67.0,-100.00,South,176,6.0,9.0,87,0.00,,,0.10,,2013-08-07 15:13:00,
2013-08-07 11:22:00,72.0,67.0,-100.00,South,176,6.0,9.0,87,0.00,,,0.10,,2013-08-07 15:22:00,
2013-08-07 11:53:00,72.0,68.0,-100.00,South,179,7.0,10.0,87,0.00,,,0.10,,2013-08-07 15:53:00,
2013-08-07 12:02:00,72.0,67.0,-100.00,South,178,10.0,13.0,85,0.00,,,0.10,,2013-08-07 16:02:00,
2013-08-07 12:11:00,72.0,67.0,-100.00,South,178,10.0,13.0,85,0.00,,,0.10,,2013-08-07 16:11:00,
2013-08-07 12:22:00,72.0,67.0,-100.00,South,178,10.0,13.0,85,0.00,,,0.10,,2013-08-07 16:22:00,
2013-08-07 12:43:00,74.0,68.0,-100.00,South,174,7.0,9.0,82,0.00,,,0.10,,2013-08-07 16:43:00,
2013-08-07 12:53:00,74.0,68.0,-100.00,South,174,7.0,9.0,82,0.00,,,0.10,,2013-08-07 16:53:00,
2013-08-07 13:02:00,74.0,68.0,-100.00,SSE,165,8.0,11.0,83,0.00,,,0.10,,2013-08-07 17:02:00,
2013-08-07 13:11:00,74.0,68.0,-100.00,SSE,165,8.0,11.0,83,0.00,,,0.10,,2013-08-07 17:11:00,
2013-08-07 13:23:00,74.0,68.0,-100.00,SSE,165,8.0,11.0,83,0.00,,,0.10,,2013-08-07 17:23:00,
2013-08-07 13:31:00,73.0,68.0,-100.00,South,178,6.0,8.0,83,0.00,,,0.10,,2013-08-07 17:31:00,
2013-08-07 13:33:00,73.0,68.0,-100.00,South,179,5.0,8.0,83,0.00,,,0.10,,2013-08-07 17:33:00,
2013-08-07 13:43:00,74.0,68.0,-100.00,South,176,6.0,8.0,83,0.00,,,0.10,,2013-08-07 17:43:00,
2013-08-07 13:52:00,74.0,68.0,-100.00,South,176,6.0,8.0,83,0.00,,,0.10,,2013-08-07 17:52:00,
2013-08-07 14:02:00,74.0,68.0,-100.00,South,176,6.0,8.0,83,0.00,,,0.10,,2013-08-07 18:02:00,
2013-08-07 14:22:00,73.0,68.0,-100.00,South,178,6.0,8.0,83,0.00,,,0.10,,2013-08-07 18:22:00,
2013-08-07 14:43:00,75.0,69.0,-100.00,SSW,198,7.0,9.0,80,0.00,,,0.09,,2013-08-07 18:43:00,
2013-08-07 14:52:00,75.0,69.0,-100.00,SSW,198,7.0,9.0,80,0.00,,,0.09,,2013-08-07 18:52:00,
2013-08-07 15:01:00,74.0,69.0,-100.00,South,176,6.0,9.0,82,0.00,,,0.09,,2013-08-07 19:01:00,
2013-08-07 15:11:00,74.0,69.0,-100.00,South,176,6.0,9.0,82,0.00,,,0.09,,2013-08-07 19:11:00,
2013-08-07 15:22:00,74.0,69.0,-100.00,South,176,6.0,9.0,82,0.00,,,0.09,,2013-08-07 19:22:00,
2013-08-07 15:32:00,76.0,70.0,-100.00,South,174,6.0,9.0,81,0.00,,,0.09,,2013-08-07 19:32:00,
2013-08-07 15:44:00,76.0,70.0,-100.00,South,174,6.0,9.0,81,0.00,,,0.09,,2013-08-07 19:44:00,
2013-08-07 15:52:00,77.0,69.0,-100.00,South,181,9.0,12.0,76,0.00,,,0.09,,2013-08-07 19:52:00,
2013-08-07 16:02:00,76.0,69.0,-100.00,SSE,168,8.0,10.0,78,0.00,,,0.09,,2013-08-07 20:02:00,
2013-08-07 16:11:00,76.0,69.0,-100.00,SSE,168,8.0,10.0,78,0.00,,,0.09,,2013-08-07 20:11:00,
2013-08-07 16:22:00,76.0,69.0,-100.00,SSE,168,8.0,10.0,78,0.00,,,0.09,,2013-08-07 20:22:00,
2013-08-07 16:33:00,76.0,69.0,-100.00,South,175,10.0,12.0,77,0.00,,,0.09,,2013-08-07 20:33:00,
2013-08-07 17:02:00,76.0,69.0,-100.00,South,172,9.0,13.0,80,0.00,,,0.09,,2013-08-07 21:02:00,
2013-08-07 17:11:00,76.0,69.0,-100.00,South,172,9.0,13.0,80,0.00,,,0.09,,2013-08-07 21:11:00,
2013-08-07 17:22:00,76.0,69.0,-100.00,South,172,9.0,13.0,80,0.00,,,0.09,,2013-08-07 21:22:00,
2013-08-07 17:32:00,75.0,69.0,-100.00,South,176,6.0,8.0,81,0.01,,,0.10,,2013-08-07 21:32:00,
2013-08-07 18:22:00,71.0,70.0,-100.00,South,171,7.0,12.0,95,0.51,,,0.40,,2013-08-07 22:22:00,
2013-08-07 18:32:00,71.0,70.0,-100.00,SSW,200,7.0,9.0,96,0.54,,,0.56,,2013-08-07 22:32:00,
2013-08-07 18:43:00,71.0,70.0,-100.00,SSW,200,7.0,9.0,96,0.54,,,0.56,,2013-08-07 22:43:00,
2013-08-07 19:02:00,71.0,70.0,-100.00,South,174,5.0,7.0,96,0.06,,,0.72,,2013-08-07 23:02:00,
2013-08-07 19:11:00,71.0,70.0,-100.00,South,174,5.0,7.0,96,0.06,,,0.72,,2013-08-07 23:11:00,
2013-08-07 19:22:00,71.0,70.0,-100.00,South,174,5.0,7.0,96,0.06,,,0.72,,2013-08-07 23:22:00,
2013-08-07 20:11:00,71.0,70.0,-100.00,West,265,1.0,2.0,96,0.00,,,0.74,,2013-08-08 00:11:00,
2013-08-07 20:43:00,71.0,70.0,-100.00,SSW,209,1.0,2.0,96,0.03,,,0.75,,2013-08-08 00:43:00,
2013-08-07 20:52:00,71.0,70.0,-100.00,SSW,195,4.0,5.0,96,0.00,,,0.75,,2013-08-08 00:52:00,
2013-08-07 21:02:00,71.0,70.0,-100.00,SSW,196,2.0,3.0,96,0.01,,,0.76,,2013-08-08 01:02:00,
2013-08-07 21:11:00,71.0,70.0,-100.00,SSW,196,2.0,3.0,96,0.01,,,0.76,,2013-08-08 01:11:00,
2013-08-07 21:22:00,71.0,70.0,-100.00,SSW,196,2.0,3.0,96,0.01,,,0.76,,2013-08-08 01:22:00,
2013-08-07 21:32:00,-999.0,70.0,-100.00,South,191,4.0,5.0,96,0.00,,,0.76,,2013-08-08 01:32:00,
2013-08-07 21:43:00,71.0,70.0,-100.00,SSW,199,6.0,7.0,96,0.00,,,0.76,,2013-08-08 01:43:00,
2013-08-07 21:52:00,71.0,70.0,-100.00,SSW,199,6.0,7.0,96,0.00,,,0.76,,2013-08-08 01:52:00,
2013-08-07 22:02:00,71.0,70.0,-100.00,South,186,4.0,5.0,96,0.00,,,0.76,,2013-08-08 02:02:00,
2013-08-07 22:11:00,71.0,70.0,-100.00,South,186,4.0,5.0,96,0.00,,,0.76,,2013-08-08 02:11:00,
2013-08-07 22:22:00,71.0,70.0,-100.00,South,186,4.0,5.0,96,0.00,,,0.76,,2013-08-08 02:22:00,
2013-08-07 22:32:00,71.0,70.0,-100.00,SSW,195,4.0,6.0,96,0.00,,,0.76,,2013-08-08 02:32:00,
2013-08-07 22:43:00,71.0,70.0,-100.00,SSW,203,4.0,6.0,95,0.00,,,0.76,,2013-08-08 02:43:00,
2013-08-07 22:52:00,71.0,70.0,-100.00,SSW,203,4.0,6.0,95,0.00,,,0.76,,2013-08-08 02:52:00,
2013-08-07 23:02:00,71.0,70.0,-100.00,SSW,203,4.0,6.0,95,0.00,,,0.76,,2013-08-08 03:02:00,
2013-08-07 23:52:00,71.0,69.0,-100.00,SSW,206,2.0,3.0,95,0.00,,,0.76,,2013-08-08 03:52:00,